Regional Weather Roundup
Issued by NWS Green Bay, WI

Home | Current Version | Previous Version | Text Only | Print | Product List | Glossary On
Versions: 1 2 3 4 5 6 7 8 9 10 11 12 13 14 15 16 17 18 19 20 21 22 23 24 25 26 27 28 29 30 31 32 33 34 35 36 37 38 39 40 41 42 43 44 45 46 47 48 49 50
000
ASUS43 KGRB 250711
RWRGRB

NORTH-CENTRAL AND NORTHEAST WISCONSIN REGIONAL WEATHER ROUNDUP
NATIONAL WEATHER SERVICE GREEN BAY WI
200 AM CDT SAT MAR 25 2017

WIZ005-009-010>012-018-019-250800-
NORTH CENTRAL WISCONSIN

CITY           SKY/WX    TMP DP  RH WIND       PRES   REMARKS
IRONWOOD       CLOUDY    32  30  92 E8        30.25R
MANITOWISH WTR CLOUDY    32  32 100 NE7       30.22R
ARBOR VITAE    CLOUDY    34  32  91 NE3       30.21R
EAGLE RIVER    CLOUDY    33  31  96 NE6       30.21R
LAND O LAKES   CLOUDY    32  32 100 NE5       30.23R FOG
RHINELANDER    CLOUDY    34  31  88 NE8       30.21R
PHILLIPS       CLOUDY    33  31  93 NE6       30.20R
ANTIGO         CLOUDY    32  31  96 E12       30.19S
TOMAHAWK       CLOUDY    33  29  86 E6        30.21R
MERRILL        CLOUDY    34  32  92 E7        30.19F
$$

WIZ013-073-250800-
NORTHEAST WISCONSIN

CITY           SKY/WX    TMP DP  RH WIND       PRES   REMARKS
IRON MOUNTAIN  CLOUDY    34  29  82 E7        30.22R
MARINETTE        N/A    N/A N/A N/A MISG        N/A
OCONTO         CLOUDY    35  32  90 NE5       30.21F
$$

WIZ017-030-035>037-045-250800-
CENTRAL WISCONSIN

CITY           SKY/WX    TMP DP  RH WIND       PRES   REMARKS
MEDFORD        CLOUDY    33  31  92 E13       30.15F
WAUSAU         CLOUDY    34  31  88 NE9       30.16F
MOSINEE        CLOUDY    32  32 100 NE14      30.16F
MARSHFIELD     CLOUDY    35  32  88 E16       30.13F
WISC RAPIDS    CLOUDY    35  34  96 E10       30.17S
STEVENS POINT  CLOUDY    32  32  99 NE10G21   30.16F
WAUPACA        DRIZZLE   36  34  91 NE8       30.17F
SHAWANO        CLOUDY    36  32  87 NE9       30.20F
CLINTONVILLE   CLOUDY    34  32  93 NE9       30.18F
WAUTOMA        CLOUDY    35  33  92 NE12      30.16S
$$

WIZ038-039-048-051-250800-
FOX VALLEY

CITY           SKY/WX    TMP DP  RH WIND       PRES   REMARKS
NWS GREEN BAY  CLOUDY    35  34  96 NE17      30.19F
APPLETON       CLOUDY    34  34 100 NE13G18   30.14F
OSHKOSH        CLOUDY    35  33  92 NE15      30.14F
FOND DU LAC    CLOUDY    37  32  82 NE13G21   30.13F
$$

WIZ022-050-052-250800-
EAST CENTRAL WISCONSIN

CITY           SKY/WX    TMP DP  RH WIND       PRES   REMARKS
EPHRAIM        CLOUDY    33  33 100 NE6       30.20F
WASHINGTON ISL CLOUDY    33  32  98 NE3       30.22S
STURGEON BAY   CLOUDY    35  32  88 NE10      30.20F
MANITOWOC      LGT RAIN  36  34  92 N8        30.17S
SHEBOYGAN      CLOUDY    36  34  92 NE17      30.13F
$$

LMZ563-521-522-541>543-250800-
LAKESHORE

STATION/POSITION TIME  TEMP    WIND        PRES    VSBY  WAVE
                       AIR SEA DIR/SP/G                  HT/PER
                 (UTC) (F)     (DEG/KT/KT) (MB)    (MI)  (FT/S)
SHEBOYGAN LKSHOR 0700   36      10/ 20/ 23 1020.8F
KEWAUNEE LKSHORE 0648           30/ 10/ 14 1021.8S
NORTHPORT PIER   0640   34      20/  4/  7 1023.4R
SISTER BAY LKSHO 0635   35      20/  6/  7   N/A
CHAMBERS ISLAND  0640   33      10/ 10/ 12 1022.7S
MENOMINEE LKSHOR 0648           10/ 14/ 16 1022.3F
$$



USA.gov is the U.S. government's official web portal to all federal, state and local government web resources and services.